Location: Unspecified
(0.0000°N, 0.0000°E)
Time: 06:31:07
(UTC+00:00)

SR - All Passes

Search period start: 21 November 2017 00:00
Search period end: 01 December 2017 00:00
Orbit: 584 x 873 km, 66.7° (Epoch: 20 November)

Date Brightness Start Highest point End Pass type
(mag) Time Alt. Az. Time Alt. Az. Time Alt. Az.
21 Nov - 01:19:13 10° WSW 01:22:22 16° WNW 01:25:24 10° NW night (unlit)
21 Nov - 12:01:04 10° NNW 12:05:36 79° ENE 12:10:34 10° SSE daylight
21 Nov - 22:48:23 10° SE 22:51:04 14° ESE 22:53:40 10° E night (unlit)
22 Nov - 00:27:54 10° SW 00:33:03 39° WNW 00:37:48 10° N night (unlit)
22 Nov - 11:12:23 10° NNE 11:16:16 27° ENE 11:20:25 10° SE daylight
22 Nov - 12:55:30 10° WNW 12:58:08 15° WSW 13:00:52 10° SSW daylight
22 Nov - 23:38:05 10° SSW 23:43:40 80° ESE 23:48:47 10° NNE night (unlit)
23 Nov - 12:04:18 10° NW 12:08:36 39° WSW 12:13:15 10° S daylight
23 Nov - 22:49:18 10° S 22:54:12 31° ESE 22:58:45 10° NE night (unlit)
24 Nov - 00:32:35 10° WSW 00:35:57 17° WNW 00:39:10 10° NNW night (unlit)
24 Nov - 11:14:36 10° NNW 11:19:10 73° ENE 11:24:09 10° SSE daylight
24 Nov - 22:02:20 10° SE 22:04:37 13° ESE 22:06:51 10° E night (unlit)
24 Nov - 23:41:26 10° SW 23:46:37 42° WNW 23:51:24 10° N night (unlit)
25 Nov - 10:26:02 10° NNE 10:29:50 26° ENE 10:33:53 10° SE daylight
25 Nov - 12:08:47 10° WNW 12:11:41 16° WSW 12:14:43 10° SSW daylight
25 Nov - 22:51:42 10° SSW 22:57:14 75° ESE 23:02:19 10° NNE night (unlit)
26 Nov - 11:17:46 10° NW 11:22:08 42° WSW 11:26:54 10° S daylight
26 Nov - 22:03:00 10° S 22:07:45 29° ESE 22:12:11 10° NE night (unlit)
26 Nov - 23:45:58 10° WSW 23:49:31 18° WNW 23:52:54 10° NNW night (unlit)
27 Nov - 10:28:09 10° NNW 10:32:43 67° ENE 10:37:42 10° SSE daylight
27 Nov - 21:16:25 10° SE 21:18:10 11° ESE 21:19:53 10° E night (unlit)
27 Nov - 22:54:58 10° SW 23:00:12 45° WNW 23:05:00 10° N night (unlit)
28 Nov - 09:39:41 10° NNE 09:43:23 24° ENE 09:47:20 10° SE daylight
28 Nov - 11:22:05 10° WNW 11:25:13 17° WSW 11:28:32 10° SSW daylight
28 Nov - 22:05:18 10° SSW 22:10:48 70° ESE 22:15:51 10° NNE night (unlit)
29 Nov - 10:31:14 10° NW 10:35:42 46° WSW 10:40:33 10° S daylight
29 Nov - 21:16:42 10° SSE 21:21:19 27° ESE 21:25:37 10° NE night (unlit)
29 Nov - 22:59:22 10° WSW 23:03:05 19° WNW 23:06:37 10° NNW night (unlit)
30 Nov - 09:41:43 10° N 09:46:16 62° ENE 09:51:16 10° SSE daylight
30 Nov - 20:30:46 10° ESE 20:31:43 10° ESE 20:32:39 10° ESE visible
30 Nov - 22:08:30 10° SW 22:13:46 49° WNW 22:18:35 10° N night (unlit)
